Location: Unspecified
(45.3712°N, 0.6436°E)
Time: 16:54:02
(UTC+02:00)

ISS - Visible Passes

Search period start: 16 July 2018 00:00
Search period end: 26 July 2018 00:00
Orbit: 402 x 408 km, 51.6° (Epoch: 17 July)

Date Brightness Start Highest point End Pass type
(mag) Time Alt. Az. Time Alt. Az. Time Alt. Az.
16 Jul -2.6 02:31:55 39° NNW 02:32:07 40° NNW 02:35:16 10° NE visible
16 Jul -1.6 04:06:19 10° WNW 04:09:10 26° N 04:12:01 10° ENE visible
16 Jul -2.7 05:42:55 10° NW 05:46:09 49° NNE 05:49:22 10° E visible
17 Jul -2.2 01:41:12 32° NE 01:41:12 32° NE 01:43:13 10° ENE visible
17 Jul -1.6 03:14:02 10° WNW 03:16:54 27° N 03:19:46 10° NE visible
17 Jul -2.1 04:50:52 10° NW 04:53:58 36° NNE 04:57:03 10° E visible
18 Jul -1.6 00:50:12 18° ENE 00:50:12 18° ENE 00:51:08 10° ENE visible
18 Jul -1.8 02:22:47 17° WNW 02:24:38 29° N 02:27:35 10° NE visible
18 Jul -1.7 03:58:46 10° NW 04:01:44 29° N 04:04:41 10° ENE visible
18 Jul -3.8 05:35:13 10° WNW 05:38:31 88° NNE 05:41:49 10° ESE visible
18 Jul -1.7 23:58:10 16° ENE 23:58:10 16° ENE 23:58:59 10° ENE visible
19 Jul -2.2 01:30:34 20° WNW 01:32:22 36° NNW 01:35:28 10° NE visible
19 Jul -1.6 03:06:35 10° NW 03:09:27 26° N 03:12:18 10° ENE visible
19 Jul -3.1 04:43:07 10° WNW 04:46:23 56° NNE 04:49:38 10° ESE visible
19 Jul -3.0 23:00:51 10° SSW 23:03:46 30° SE 23:06:42 10° ENE visible
20 Jul -2.9 00:36:57 10° W 00:40:09 49° NNW 00:43:23 10° NE visible
20 Jul -1.5 02:14:18 10° WNW 02:17:09 26° N 02:19:59 10° ENE visible
20 Jul -2.4 03:51:02 10° NW 03:54:11 39° NNE 03:57:19 10° E visible
20 Jul -3.5 05:27:34 10° WNW 05:30:43 43° SW 05:33:51 10° SE visible
20 Jul -2.3 22:09:35 10° S 22:11:50 17° SE 22:14:05 10° E visible
20 Jul -3.7 23:44:42 10° WSW 23:47:59 76° NNW 23:51:16 10° ENE visible
21 Jul -1.7 01:21:55 10° WNW 01:24:49 28° N 01:27:44 10° NE visible
21 Jul -1.9 02:58:55 10° NW 03:01:55 31° NNE 03:04:55 10° ENE visible
21 Jul -4.0 04:35:21 10° WNW 04:38:39 77° SSW 04:41:56 10° SE visible
21 Jul -3.9 22:52:37 10° SW 22:55:51 65° SSE 22:59:07 10° ENE visible
22 Jul -2.0 00:29:30 10° W 00:32:32 33° NNW 00:35:34 10° NE visible
22 Jul -1.6 02:06:43 10° NW 02:09:36 27° N 02:12:30 10° ENE visible
22 Jul -3.5 03:43:12 10° WNW 03:46:30 66° NNE 03:49:47 10° ESE visible
22 Jul -2.5 05:20:11 10° W 05:22:43 20° SW 05:25:14 10° S visible
22 Jul -2.6 23:37:06 10° W 23:40:15 43° NNW 23:43:25 10° NE visible
23 Jul -1.6 01:14:26 10° WNW 01:17:16 26° N 01:20:07 10° ENE visible
23 Jul -2.2 02:51:05 10° NW 02:53:15 32° NNW 02:53:15 32° NNW visible
23 Jul -3.3 22:44:45 10° WSW 22:48:01 64° NNW 22:51:17 10° ENE visible
24 Jul -1.6 00:22:02 10° WNW 00:24:55 27° N 00:27:47 10° NE visible
24 Jul -2.0 01:58:57 10° NW 02:01:37 32° N 02:01:37 32° N visible
24 Jul -1.9 23:29:35 10° WNW 23:32:34 31° NNW 23:35:33 10° NE visible
25 Jul -1.8 01:06:44 10° NW 01:09:39 28° N 01:10:36 24° NE visible
25 Jul -0.8 02:43:11 10° WNW 02:43:13 10° WNW 02:43:13 10° WNW visible
25 Jul -2.3 22:37:08 10° W 22:40:14 38° NNW 22:43:21 10° NE visible
